This demonstration page uses our WeatherBlox Daily Observations layout. Learn more.

Left ArrowRight Arrow

Hourly Observations for April 8, 2018

Temp ( °F °C ) Dew Point ( °F °C ) Humidity (%) Winds ( mph kmh ) Pressure ( in mb ) Visibility ( mi km ) Precip ( " mm )
12:51 am 00:51 Clear 72 22.2 41 5 33 33 NW 16 26 29.71 1006 10 16 0.00 0.00
1:51 am 01:51 Clear 70 21.1 43 6.1 38 38 NNW 12 19 29.70 1006 10 16 0.00 0.00
2:51 am 02:51 Clear 70 21.1 43 6.1 38 38 NW 12 19 29.68 1005 10 16 0.00 0.00
3:51 am 03:51 Clear 70 21.1 44 6.7 39 39 NNW 14 22 29.67 1005 10 16 0.00 0.00
4:51 am 04:51 Clear 69 20.6 45 7.2 42 42 NNW 15 24 29.67 1005 10 16 0.00 0.00
5:51 am 05:51 Clear 68 20 45 7.2 44 44 NW 10 17 29.70 1006 10 16 0.00 0.00
6:51 am 06:51 Sunny 71 21.7 46 7.8 41 41 NW 16 26 29.72 1006 10 16 0.00 0.00
7:51 am 07:51 Sunny 74 23.3 46 7.8 37 37 NNW 18 30 29.74 1007 10 16 0.00 0.00
8:51 am 08:51 Cloudy 76 24.4 47 8.3 36 36 NW 15 24 29.75 1007 10 16 0.00 0.00
9:51 am 09:51 Cloudy 78 25.6 47 8.3 33 33 WNW 17 28 29.74 1007 10 16 0.00 0.00
10:51 am 10:51 Sunny 81 27.2 46 7.8 29 29 NNW 22 35 29.73 1007 10 16 0.00 0.00
11:51 am 11:51 Sunny 83 28.3 46 7.8 27 27 WNW 22 35 29.73 1007 10 16 0.00 0.00
12:51 pm 12:51 Sunny 85 29.4 45 7.2 25 25 NW 20 31 29.70 1006 10 16 0.00 0.00
1:51 pm 13:51 Sunny 87 30.6 39 3.9 18 18 NW 23 37 29.67 1005 10 16 0.00 0.00
2:51 pm 14:51 Sunny 87 30.6 34 1.1 15 15 WNW 22 35 29.66 1004 10 16 0.00 0.00
3:51 pm 15:51 Sunny 87 30.6 30 -1.1 13 13 WNW 24 39 29.66 1004 10 16 0.00 0.00
4:51 pm 16:51 Sunny 86 30 28 -2.2 12 12 WNW 25 41 29.66 1004 10 16 0.00 0.00
5:51 pm 17:51 Sunny 83 28.3 31 -0.6 15 15 WNW 21 33 29.68 1005 10 16 0.00 0.00
6:51 pm 18:51 Clear 79 26.1 30 -1.1 17 17 WNW 18 30 29.70 1006 10 16 0.00 0.00
7:51 pm 19:51 Clear 76 24.4 32 0 20 20 NW 13 20 29.73 1007 10 16 0.00 0.00
8:51 pm 20:51 Clear 74 23.3 31 -0.6 20 20 NNW 13 20 29.76 1008 10 16 0.00 0.00
9:51 pm 21:51 Clear 72 22.2 28 -2.2 19 19 NW 12 19 29.78 1008 10 16 0.00 0.00
10:51 pm 22:51 Clear 68 20 26 -3.3 21 21 WNW 10 17 29.77 1008 10 16 0.00 0.00
11:51 pm 23:51 Clear 66 18.9 24 -4.4 20 20 NNW 8 13 29.79 1009 10 16 0.00 0.00

Powered by AerisWeather